Time,TemperatureF,DewpointF,PressureIn,WindDirection,WindDirectionDegrees,WindSpeedMPH,WindSpeedGustMPH,Humidity,HourlyPrecipIn,Conditions,Clouds,dailyrainin,SoftwareType,DateUTC
2013-06-21 00:01:00,64.8,52.5,30.26,SE,135,0.0,0.0,64,0.00,,,0.00,WUHU21623XXSP,2013-06-21 04:01:00,
2013-06-21 00:06:00,64.6,52.3,30.26,SE,135,0.0,0.0,64,0.00,,,0.00,WUHU21623XXSP,2013-06-21 04:06:00,
2013-06-21 00:11:00,64.5,52.6,30.26,SE,135,0.0,0.0,65,0.00,,,0.00,WUHU21623XXSP,2013-06-21 04:11:00,
2013-06-21 00:16:00,64.3,52.4,30.25,SE,135,0.0,0.0,65,0.00,,,0.00,WUHU21623XXSP,2013-06-21 04:16:00,
2013-06-21 00:21:00,64.1,52.3,30.25,SE,135,0.0,0.0,65,0.00,,,0.00,WUHU21623XXSP,2013-06-21 04:21:00,
2013-06-21 00:26:00,63.9,52.5,30.25,SE,135,0.0,0.0,66,0.00,,,0.00,WUHU21623XXSP,2013-06-21 04:26:00,
2013-06-21 00:31:00,63.9,52.5,30.25,SE,135,0.0,0.0,66,0.00,,,0.00,WUHU21623XXSP,2013-06-21 04:31:00,
2013-06-21 00:36:00,63.7,52.3,30.26,SE,135,0.0,0.0,66,0.00,,,0.00,WUHU21623XXSP,2013-06-21 04:36:00,
2013-06-21 00:41:00,63.4,52.0,30.26,SE,135,0.0,0.0,66,0.00,,,0.00,WUHU21623XXSP,2013-06-21 04:41:00,
2013-06-21 00:46:00,63.4,52.0,30.26,SE,135,0.0,0.0,66,0.00,,,0.00,WUHU21623XXSP,2013-06-21 04:46:00,
2013-06-21 00:51:00,63.2,52.2,30.26,SE,135,0.0,0.0,67,0.00,,,0.00,WUHU21623XXSP,2013-06-21 04:51:00,
2013-06-21 00:56:00,63.0,52.0,30.26,SE,135,0.0,0.0,67,0.00,,,0.00,WUHU21623XXSP,2013-06-21 04:56:00,
2013-06-21 01:01:00,63.0,52.0,30.26,SE,135,0.0,0.0,67,0.00,,,0.00,WUHU21623XXSP,2013-06-21 05:01:00,
2013-06-21 01:06:00,62.8,52.2,30.26,SE,135,0.0,0.0,68,0.00,,,0.00,WUHU21623XXSP,2013-06-21 05:06:00,
2013-06-21 01:11:00,62.7,52.1,30.27,SE,135,0.0,0.0,68,0.00,,,0.00,WUHU21623XXSP,2013-06-21 05:11:00,
2013-06-21 01:16:00,62.7,52.1,30.27,SE,135,0.0,0.0,68,0.00,,,0.00,WUHU21623XXSP,2013-06-21 05:16:00,
2013-06-21 01:21:00,62.5,51.9,30.26,SE,135,0.0,0.0,68,0.00,,,0.00,WUHU21623XXSP,2013-06-21 05:21:00,
2013-06-21 01:26:00,62.3,51.8,30.27,SE,135,0.0,0.0,68,0.00,,,0.00,WUHU21623XXSP,2013-06-21 05:26:00,
2013-06-21 01:31:00,62.1,52.0,30.27,SE,135,0.0,0.0,69,0.00,,,0.00,WUHU21623XXSP,2013-06-21 05:31:00,
2013-06-21 01:36:00,62.1,52.0,30.27,SE,135,0.0,0.0,69,0.00,,,0.00,WUHU21623XXSP,2013-06-21 05:36:00,
2013-06-21 01:41:00,61.9,51.8,30.27,SE,135,0.0,0.0,69,0.00,,,0.00,WUHU21623XXSP,2013-06-21 05:41:00,
2013-06-21 01:46:00,61.9,51.8,30.27,SE,135,0.0,0.0,69,0.00,,,0.00,WUHU21623XXSP,2013-06-21 05:46:00,
2013-06-21 01:51:00,61.8,51.7,30.27,SE,135,0.0,0.0,69,0.00,,,0.00,WUHU21623XXSP,2013-06-21 05:51:00,
2013-06-21 01:56:00,61.6,51.9,30.28,SE,135,0.0,0.0,70,0.00,,,0.00,WUHU21623XXSP,2013-06-21 05:56:00,
2013-06-21 02:01:00,61.4,51.7,30.27,SE,135,0.0,0.0,70,0.00,,,0.00,WUHU21623XXSP,2013-06-21 06:01:00,
2013-06-21 02:06:00,61.2,51.5,30.27,SE,135,0.0,0.0,70,0.00,,,0.00,WUHU21623XXSP,2013-06-21 06:06:00,
2013-06-21 02:11:00,61.2,51.5,30.27,SE,135,0.0,0.0,70,0.00,,,0.00,WUHU21623XXSP,2013-06-21 06:11:00,
2013-06-21 02:16:00,61.0,51.3,30.27,SE,135,0.0,0.0,70,0.00,,,0.00,WUHU21623XXSP,2013-06-21 06:16:00,
2013-06-21 02:21:00,61.0,51.7,30.27,SE,135,0.0,0.0,71,0.00,,,0.00,WUHU21623XXSP,2013-06-21 06:21:00,
2013-06-21 02:26:00,60.9,51.6,30.27,SE,135,0.0,0.0,71,0.00,,,0.00,WUHU21623XXSP,2013-06-21 06:26:00,
2013-06-21 02:31:00,60.9,51.6,30.27,SE,135,0.0,0.0,71,0.00,,,0.00,WUHU21623XXSP,2013-06-21 06:31:00,
2013-06-21 02:36:00,60.7,51.4,30.27,SE,135,0.0,0.0,71,0.00,,,0.00,WUHU21623XXSP,2013-06-21 06:36:00,
2013-06-21 02:41:00,60.5,51.6,30.27,SE,135,0.0,0.0,72,0.00,,,0.00,WUHU21623XXSP,2013-06-21 06:41:00,
2013-06-21 02:46:00,60.3,51.4,30.27,SE,135,0.0,0.0,72,0.00,,,0.00,WUHU21623XXSP,2013-06-21 06:46:00,
2013-06-21 02:51:00,60.3,51.4,30.27,SE,135,0.0,0.0,72,0.00,,,0.00,WUHU21623XXSP,2013-06-21 06:51:00,
2013-06-21 02:56:00,60.3,51.4,30.27,SE,135,0.0,0.0,72,0.00,,,0.00,WUHU21623XXSP,2013-06-21 06:56:00,
2013-06-21 03:01:00,60.3,51.4,30.27,SE,135,0.0,0.0,72,0.00,,,0.00,WUHU21623XXSP,2013-06-21 07:01:00,
2013-06-21 03:06:00,60.1,51.2,30.27,SE,135,0.0,0.0,72,0.00,,,0.00,WUHU21623XXSP,2013-06-21 07:06:00,
2013-06-21 03:11:00,60.1,51.2,30.26,SE,135,0.0,0.0,72,0.00,,,0.00,WUHU21623XXSP,2013-06-21 07:11:00,
2013-06-21 03:16:00,60.0,51.4,30.26,SE,135,0.0,0.0,73,0.00,,,0.00,WUHU21623XXSP,2013-06-21 07:16:00,
2013-06-21 03:21:00,59.8,51.2,30.26,SE,135,0.0,0.0,73,0.00,,,0.00,WUHU21623XXSP,2013-06-21 07:21:00,
2013-06-21 03:26:00,59.8,51.2,30.26,SE,135,0.0,0.0,73,0.00,,,0.00,WUHU21623XXSP,2013-06-21 07:26:00,
2013-06-21 03:31:00,59.8,51.2,30.26,SE,135,0.0,0.0,73,0.00,,,0.00,WUHU21623XXSP,2013-06-21 07:31:00,
2013-06-21 03:36:00,59.6,51.1,30.26,SE,135,0.0,0.0,73,0.00,,,0.00,WUHU21623XXSP,2013-06-21 07:36:00,
2013-06-21 03:41:00,59.4,50.9,30.26,SE,135,0.0,0.0,73,0.00,,,0.00,WUHU21623XXSP,2013-06-21 07:41:00,
2013-06-21 03:46:00,59.4,50.9,30.25,SE,135,0.0,0.0,73,0.00,,,0.00,WUHU21623XXSP,2013-06-21 07:46:00,
2013-06-21 03:51:00,59.4,50.9,30.26,SE,135,0.0,0.0,73,0.00,,,0.00,WUHU21623XXSP,2013-06-21 07:51:00,
2013-06-21 03:56:00,59.4,50.9,30.25,SE,135,0.0,0.0,73,0.00,,,0.00,WUHU21623XXSP,2013-06-21 07:56:00,
2013-06-21 04:01:00,59.2,50.7,30.25,SE,135,0.0,0.0,73,0.00,,,0.00,WUHU21623XXSP,2013-06-21 08:01:00,
2013-06-21 04:06:00,59.2,50.7,30.26,SE,135,0.0,0.0,73,0.00,,,0.00,WUHU21623XXSP,2013-06-21 08:06:00,
2013-06-21 04:11:00,59.2,51.0,30.25,SE,135,0.0,0.0,74,0.00,,,0.00,WUHU21623XXSP,2013-06-21 08:11:00,
2013-06-21 04:16:00,59.1,50.9,30.26,SE,135,0.0,0.0,74,0.00,,,0.00,WUHU21623XXSP,2013-06-21 08:16:00,
2013-06-21 04:21:00,59.1,50.9,30.25,SE,135,0.0,0.0,74,0.00,,,0.00,WUHU21623XXSP,2013-06-21 08:21:00,
2013-06-21 04:26:00,58.9,50.7,30.25,SE,135,0.0,0.0,74,0.00,,,0.00,WUHU21623XXSP,2013-06-21 08:26:00,
2013-06-21 04:31:00,58.9,50.7,30.26,SE,135,0.0,0.0,74,0.00,,,0.00,WUHU21623XXSP,2013-06-21 08:31:00,
2013-06-21 04:36:00,58.9,50.7,30.25,SE,135,0.0,0.0,74,0.00,,,0.00,WUHU21623XXSP,2013-06-21 08:36:00,
2013-06-21 04:41:00,58.5,50.3,30.25,SE,135,0.0,0.0,74,0.00,,,0.00,WUHU21623XXSP,2013-06-21 08:41:00,
2013-06-21 04:46:00,58.5,50.3,30.25,SE,135,0.0,0.0,74,0.00,,,0.00,WUHU21623XXSP,2013-06-21 08:46:00,
2013-06-21 04:51:00,58.5,50.3,30.25,SE,135,0.0,0.0,74,0.00,,,0.00,WUHU21623XXSP,2013-06-21 08:51:00,
2013-06-21 04:56:00,58.5,50.3,30.25,SE,135,0.0,0.0,74,0.00,,,0.00,WUHU21623XXSP,2013-06-21 08:56:00,
2013-06-21 05:01:00,58.3,50.5,30.26,SE,135,0.0,0.0,75,0.00,,,0.00,WUHU21623XXSP,2013-06-21 09:01:00,
2013-06-21 05:06:00,58.3,50.5,30.26,SE,135,0.0,0.0,75,0.00,,,0.00,WUHU21623XXSP,2013-06-21 09:06:00,
2013-06-21 05:11:00,58.2,50.4,30.26,SE,135,0.0,0.0,75,0.00,,,0.00,WUHU21623XXSP,2013-06-21 09:11:00,
2013-06-21 05:16:00,58.2,50.4,30.26,SE,135,0.0,0.0,75,0.00,,,0.00,WUHU21623XXSP,2013-06-21 09:16:00,
2013-06-21 05:21:00,58.2,50.4,30.26,SE,135,0.0,0.0,75,0.00,,,0.00,WUHU21623XXSP,2013-06-21 09:21:00,
2013-06-21 05:26:00,58.0,50.6,30.26,SE,135,0.0,0.0,76,0.00,,,0.00,WUHU21623XXSP,2013-06-21 09:26:00,
2013-06-21 05:31:00,58.0,50.6,30.26,SE,135,0.0,0.0,76,0.00,,,0.00,WUHU21623XXSP,2013-06-21 09:31:00,
2013-06-21 05:36:00,58.0,50.6,30.26,SE,135,0.0,0.0,76,0.00,,,0.00,WUHU21623XXSP,2013-06-21 09:36:00,
2013-06-21 05:41:00,57.8,50.4,30.26,SE,135,0.0,0.0,76,0.00,,,0.00,WUHU21623XXSP,2013-06-21 09:41:00,
2013-06-21 05:46:00,57.8,50.4,30.26,SE,135,0.0,0.0,76,0.00,,,0.00,WUHU21623XXSP,2013-06-21 09:46:00,
2013-06-21 05:51:00,57.6,50.2,30.25,SE,135,0.0,0.0,76,0.00,,,0.00,WUHU21623XXSP,2013-06-21 09:51:00,
2013-06-21 05:56:00,57.6,50.2,30.26,SE,135,0.0,0.0,76,0.00,,,0.00,WUHU21623XXSP,2013-06-21 09:56:00,
2013-06-21 06:01:00,57.6,50.2,30.26,SE,135,0.0,0.0,76,0.00,,,0.00,WUHU21623XXSP,2013-06-21 10:01:00,
2013-06-21 06:06:00,57.4,50.0,30.26,SE,135,0.0,0.0,76,0.00,,,0.00,WUHU21623XXSP,2013-06-21 10:06:00,
2013-06-21 06:11:00,57.4,50.0,30.26,SE,135,0.0,0.0,76,0.00,,,0.00,WUHU21623XXSP,2013-06-21 10:11:00,
2013-06-21 06:16:00,57.4,50.0,30.26,SE,135,0.0,0.0,76,0.00,,,0.00,WUHU21623XXSP,2013-06-21 10:16:00,
2013-06-21 06:21:00,57.4,50.0,30.27,SE,135,0.0,0.0,76,0.00,,,0.00,WUHU21623XXSP,2013-06-21 10:21:00,
2013-06-21 06:26:00,57.6,50.2,30.27,SE,135,0.0,0.0,76,0.00,,,0.00,WUHU21623XXSP,2013-06-21 10:26:00,
2013-06-21 06:31:00,57.6,50.2,30.27,SE,135,0.0,0.0,76,0.00,,,0.00,WUHU21623XXSP,2013-06-21 10:31:00,
2013-06-21 06:36:00,57.8,50.4,30.27,SE,135,0.0,0.0,76,0.00,,,0.00,WUHU21623XXSP,2013-06-21 10:36:00,
2013-06-21 06:41:00,58.0,50.6,30.27,SE,135,0.0,0.0,76,0.00,,,0.00,WUHU21623XXSP,2013-06-21 10:41:00,
2013-06-21 06:46:00,58.0,50.6,30.27,SE,135,0.0,0.0,76,0.00,,,0.00,WUHU21623XXSP,2013-06-21 10:46:00,
2013-06-21 06:51:00,58.3,50.9,30.27,SE,135,0.0,0.0,76,0.00,,,0.00,WUHU21623XXSP,2013-06-21 10:51:00,
2013-06-21 06:56:00,58.5,51.1,30.27,SE,135,0.0,0.0,76,0.00,,,0.00,WUHU21623XXSP,2013-06-21 10:56:00,
2013-06-21 07:01:00,58.7,51.2,30.28,SE,135,0.0,0.0,76,0.00,,,0.00,WUHU21623XXSP,2013-06-21 11:01:00,
2013-06-21 07:06:00,59.1,51.6,30.28,SE,135,0.0,0.0,76,0.00,,,0.00,WUHU21623XXSP,2013-06-21 11:06:00,
2013-06-21 07:11:00,59.2,52.1,30.28,SE,135,0.0,0.0,77,0.00,,,0.00,WUHU21623XXSP,2013-06-21 11:11:00,
2013-06-21 07:16:00,59.6,52.1,30.28,SE,135,0.0,0.0,76,0.00,,,0.00,WUHU21623XXSP,2013-06-21 11:16:00,
2013-06-21 07:21:00,60.0,52.5,30.28,SE,135,0.0,0.0,76,0.00,,,0.00,WUHU21623XXSP,2013-06-21 11:21:00,
2013-06-21 07:26:00,60.3,52.8,30.28,SE,135,0.0,0.0,76,0.00,,,0.00,WUHU21623XXSP,2013-06-21 11:26:00,
2013-06-21 07:31:00,60.7,53.2,30.29,SE,135,0.0,0.0,76,0.00,,,0.00,WUHU21623XXSP,2013-06-21 11:31:00,
2013-06-21 07:36:00,61.0,53.1,30.29,SE,135,0.0,0.0,75,0.00,,,0.00,WUHU21623XXSP,2013-06-21 11:36:00,
2013-06-21 07:41:00,61.6,53.7,30.29,SE,135,0.0,0.0,75,0.00,,,0.00,WUHU21623XXSP,2013-06-21 11:41:00,
2013-06-21 07:46:00,61.9,54.0,30.29,SE,135,0.0,0.0,75,0.00,,,0.00,WUHU21623XXSP,2013-06-21 11:46:00,
2013-06-21 07:51:00,62.5,54.2,30.29,SE,135,0.0,0.0,74,0.00,,,0.00,WUHU21623XXSP,2013-06-21 11:51:00,
2013-06-21 07:56:00,62.8,54.5,30.29,SE,135,0.0,0.0,74,0.00,,,0.00,WUHU21623XXSP,2013-06-21 11:56:00,
2013-06-21 08:01:00,63.2,54.9,30.30,SE,135,0.0,0.0,74,0.00,,,0.00,WUHU21623XXSP,2013-06-21 12:01:00,
2013-06-21 08:06:00,63.7,55.4,30.30,SE,135,0.0,0.0,74,0.00,,,0.00,WUHU21623XXSP,2013-06-21 12:06:00,
2013-06-21 08:11:00,64.3,55.6,30.30,SE,135,0.0,0.0,73,0.00,,,0.00,WUHU21623XXSP,2013-06-21 12:11:00,
2013-06-21 08:16:00,64.6,55.9,30.30,SE,135,0.0,0.0,73,0.00,,,0.00,WUHU21623XXSP,2013-06-21 12:16:00,
2013-06-21 08:21:00,65.0,55.9,30.30,SE,135,0.0,0.0,72,0.00,,,0.00,WUHU21623XXSP,2013-06-21 12:21:00,
2013-06-21 08:26:00,65.5,56.4,30.30,SE,135,0.0,0.0,72,0.00,,,0.00,WUHU21623XXSP,2013-06-21 12:26:00,
2013-06-21 08:31:00,66.1,57.0,30.29,SE,135,0.0,0.0,72,0.00,,,0.00,WUHU21623XXSP,2013-06-21 12:31:00,
2013-06-21 08:36:00,66.4,56.9,30.29,SE,135,0.0,0.0,71,0.00,,,0.00,WUHU21623XXSP,2013-06-21 12:36:00,
2013-06-21 08:41:00,66.8,57.3,30.30,SE,135,0.0,0.0,71,0.00,,,0.00,WUHU21623XXSP,2013-06-21 12:41:00,
2013-06-21 08:46:00,67.3,57.3,30.30,SE,135,0.0,0.0,70,0.00,,,0.00,WUHU21623XXSP,2013-06-21 12:46:00,
2013-06-21 08:51:00,67.5,57.5,30.30,SE,135,0.0,0.0,70,0.00,,,0.00,WUHU21623XXSP,2013-06-21 12:51:00,
2013-06-21 08:56:00,68.1,58.1,30.30,SE,135,0.0,0.0,70,0.00,,,0.00,WUHU21623XXSP,2013-06-21 12:56:00,
2013-06-21 09:01:00,68.4,58.4,30.30,East,90,0.0,0.0,70,0.00,,,0.00,WUHU21623XXSP,2013-06-21 13:01:00,
2013-06-21 09:06:00,68.8,58.4,30.29,South,180,0.0,0.0,69,0.00,,,0.00,WUHU21623XXSP,2013-06-21 13:06:00,
2013-06-21 09:11:00,69.1,58.7,30.29,ESE,112,0.0,0.0,69,0.00,,,0.00,WUHU21623XXSP,2013-06-21 13:11:00,
2013-06-21 09:16:00,69.3,58.9,30.29,ESE,112,0.0,0.0,69,0.00,,,0.00,WUHU21623XXSP,2013-06-21 13:16:00,
2013-06-21 09:21:00,69.7,58.9,30.29,ESE,112,0.0,0.0,68,0.00,,,0.00,WUHU21623XXSP,2013-06-21 13:21:00,
2013-06-21 09:26:00,70.0,59.1,30.29,ESE,112,0.0,0.0,68,0.00,,,0.00,WUHU21623XXSP,2013-06-21 13:26:00,
2013-06-21 09:31:00,70.2,59.3,30.29,SE,135,0.0,1.3,68,0.00,,,0.00,WUHU21623XXSP,2013-06-21 13:31:00,
2013-06-21 09:36:00,70.6,59.7,30.29,ESE,112,0.0,1.3,68,0.00,,,0.00,WUHU21623XXSP,2013-06-21 13:36:00,
2013-06-21 09:41:00,70.8,59.5,30.29,ESE,112,0.0,0.0,67,0.00,,,0.00,WUHU21623XXSP,2013-06-21 13:41:00,
2013-06-21 09:46:00,71.1,59.4,30.28,ESE,112,0.0,0.0,66,0.00,,,0.00,WUHU21623XXSP,2013-06-21 13:46:00,
2013-06-21 09:51:00,71.1,58.9,30.28,ESE,112,0.0,0.0,65,0.00,,,0.00,WUHU21623XXSP,2013-06-21 13:51:00,
2013-06-21 09:56:00,71.5,58.9,30.28,ENE,67,0.0,0.0,64,0.00,,,0.00,WUHU21623XXSP,2013-06-21 13:56:00,
2013-06-21 10:01:00,71.7,59.5,30.28,ENE,67,0.0,0.0,65,0.00,,,0.00,WUHU21623XXSP,2013-06-21 14:01:00,
2013-06-21 10:06:00,71.8,59.6,30.28,South,180,0.0,0.0,65,0.00,,,0.00,WUHU21623XXSP,2013-06-21 14:06:00,
2013-06-21 10:12:00,72.0,59.8,30.28,ESE,112,0.0,0.0,65,0.00,,,0.00,WUHU21623XXSP,2013-06-21 14:12:00,
2013-06-21 10:17:00,72.4,59.7,30.28,ESE,112,0.0,0.0,64,0.00,,,0.00,WUHU21623XXSP,2013-06-21 14:17:00,
2013-06-21 10:22:00,72.7,60.0,30.27,ENE,67,0.0,0.0,64,0.00,,,0.00,WUHU21623XXSP,2013-06-21 14:22:00,
2013-06-21 10:27:00,72.9,60.2,30.27,ENE,67,0.0,0.0,64,0.00,,,0.00,WUHU21623XXSP,2013-06-21 14:27:00,
2013-06-21 10:31:00,73.1,60.4,30.28,ENE,67,0.0,1.6,64,0.00,,,0.00,WUHU21623XXSP,2013-06-21 14:31:00,
2013-06-21 10:36:00,73.3,60.6,30.28,SSE,157,0.0,1.6,64,0.00,,,0.00,WUHU21623XXSP,2013-06-21 14:36:00,
2013-06-21 10:41:00,73.6,60.9,30.28,SSE,147,4.0,5.6,64,0.00,,,0.00,WUHU21623XXSP,2013-06-21 14:41:00,
2013-06-21 10:46:00,73.8,61.1,30.28,East,90,0.0,5.6,64,0.00,,,0.00,WUHU21623XXSP,2013-06-21 14:46:00,
2013-06-21 10:51:00,73.8,61.1,30.28,East,93,1.8,6.3,64,0.00,,,0.00,WUHU21623XXSP,2013-06-21 14:51:00,
2013-06-21 10:56:00,74.2,61.0,30.28,ENE,67,0.0,6.3,63,0.00,,,0.00,WUHU21623XXSP,2013-06-21 14:56:00,
2013-06-21 11:01:00,74.4,60.7,30.28,SSE,157,0.0,1.1,62,0.00,,,0.00,WUHU21623XXSP,2013-06-21 15:01:00,
2013-06-21 11:07:00,74.5,60.8,30.28,ESE,112,0.0,1.1,62,0.00,,,0.00,WUHU21623XXSP,2013-06-21 15:07:00,
2013-06-21 11:12:00,74.7,60.6,30.28,NE,45,0.0,5.4,61,0.00,,,0.00,WUHU21623XXSP,2013-06-21 15:12:00,
2013-06-21 11:17:00,74.7,60.1,30.28,ESE,104,4.7,6.0,60,0.00,,,0.00,WUHU21623XXSP,2013-06-21 15:17:00,
2013-06-21 11:22:00,75.1,60.5,30.28,SE,126,2.5,6.0,60,0.00,,,0.00,WUHU21623XXSP,2013-06-21 15:22:00,
2013-06-21 11:27:00,75.3,60.2,30.29,SE,135,0.0,8.3,59,0.00,,,0.00,WUHU21623XXSP,2013-06-21 15:27:00,
2013-06-21 11:32:00,75.3,60.2,30.29,SSE,157,0.0,8.3,59,0.00,,,0.00,WUHU21623XXSP,2013-06-21 15:32:00,
2013-06-21 11:37:00,75.4,59.8,30.29,East,100,2.3,5.8,58,0.00,,,0.00,WUHU21623XXSP,2013-06-21 15:37:00,
2013-06-21 11:42:00,75.4,59.8,30.29,East,90,5.6,5.8,58,0.00,,,0.00,WUHU21623XXSP,2013-06-21 15:42:00,
2013-06-21 11:47:00,75.8,59.7,30.29,SE,135,0.0,5.6,57,0.00,,,0.00,WUHU21623XXSP,2013-06-21 15:47:00,
2013-06-21 11:52:00,76.0,59.9,30.29,ESE,112,2.5,4.5,57,0.00,,,0.00,WUHU21623XXSP,2013-06-21 15:52:00,
2013-06-21 11:57:00,76.0,59.9,30.29,ENE,67,0.0,6.3,57,0.00,,,0.00,WUHU21623XXSP,2013-06-21 15:57:00,
2013-06-21 12:02:00,76.2,60.0,30.29,SSW,202,0.2,4.9,57,0.00,,,0.00,WUHU21623XXSP,2013-06-21 16:02:00,
2013-06-21 12:07:00,76.5,60.3,30.29,SE,142,4.3,5.8,57,0.00,,,0.00,WUHU21623XXSP,2013-06-21 16:07:00,
2013-06-21 12:12:00,76.5,59.3,30.29,SSE,157,5.1,5.8,55,0.00,,,0.00,WUHU21623XXSP,2013-06-21 16:12:00,
2013-06-21 12:17:00,76.5,59.3,30.29,South,179,2.2,6.7,55,0.00,,,0.00,WUHU21623XXSP,2013-06-21 16:17:00,
2013-06-21 12:22:00,76.5,58.8,30.29,ESE,121,4.7,7.2,54,0.00,,,0.00,WUHU21623XXSP,2013-06-21 16:22:00,
2013-06-21 12:27:00,76.5,58.2,30.29,East,90,6.7,7.2,53,0.00,,,0.00,WUHU21623XXSP,2013-06-21 16:27:00,
2013-06-21 12:32:00,76.7,58.4,30.29,ESE,116,3.4,6.7,53,0.00,,,0.00,WUHU21623XXSP,2013-06-21 16:32:00,
2013-06-21 12:37:00,76.9,58.1,30.29,ESE,103,4.5,8.9,52,0.00,,,0.00,WUHU21623XXSP,2013-06-21 16:37:00,
2013-06-21 12:42:00,76.9,58.1,30.29,East,79,2.2,8.9,52,0.00,,,0.00,WUHU21623XXSP,2013-06-21 16:42:00,
2013-06-21 12:47:00,76.9,58.1,30.29,SE,135,6.3,8.3,52,0.00,,,0.00,WUHU21623XXSP,2013-06-21 16:47:00,
2013-06-21 12:53:00,76.9,58.1,30.28,SSE,151,4.0,6.3,52,0.00,,,0.00,WUHU21623XXSP,2013-06-21 16:53:00,
2013-06-21 12:58:00,77.1,58.8,30.28,ESE,105,3.1,8.3,53,0.00,,,0.00,WUHU21623XXSP,2013-06-21 16:58:00,
2013-06-21 13:02:00,77.2,58.3,30.28,East,90,0.7,8.3,52,0.00,,,0.00,WUHU21623XXSP,2013-06-21 17:02:00,
2013-06-21 13:07:00,77.4,58.5,30.28,SSW,202,3.1,4.3,52,0.00,,,0.00,WUHU21623XXSP,2013-06-21 17:07:00,
2013-06-21 13:13:00,77.6,58.7,30.28,South,180,4.0,4.0,52,0.00,,,0.00,WUHU21623XXSP,2013-06-21 17:13:00,
2013-06-21 13:18:00,77.8,58.9,30.28,SSE,166,2.1,5.6,52,0.00,,,0.00,WUHU21623XXSP,2013-06-21 17:18:00,
2013-06-21 13:23:00,78.0,58.5,30.28,SSE,165,4.6,6.9,51,0.00,,,0.00,WUHU21623XXSP,2013-06-21 17:23:00,
2013-06-21 13:28:00,77.8,57.8,30.29,SSE,157,3.6,6.9,50,0.00,,,0.00,WUHU21623XXSP,2013-06-21 17:28:00,
2013-06-21 13:33:00,78.0,57.4,30.29,SW,225,0.0,5.1,49,0.00,,,0.00,WUHU21623XXSP,2013-06-21 17:33:00,
2013-06-21 13:38:00,78.1,57.5,30.28,SE,135,3.4,4.5,49,0.00,,,0.00,WUHU21623XXSP,2013-06-21 17:38:00,
2013-06-21 13:44:00,78.1,57.5,30.28,SSE,157,4.1,7.8,49,0.00,,,0.00,WUHU21623XXSP,2013-06-21 17:44:00,
2013-06-21 13:46:00,78.3,57.7,30.28,SSE,160,3.5,7.8,49,0.00,,,0.00,WUHU21623XXSP,2013-06-21 17:46:00,
2013-06-21 13:49:00,78.3,57.7,30.28,ESE,112,4.3,7.8,49,0.00,,,0.00,WUHU21623XXSP,2013-06-21 17:49:00,
2013-06-21 13:54:00,78.3,57.7,30.28,East,89,2.4,7.2,49,0.00,,,0.00,WUHU21623XXSP,2013-06-21 17:54:00,
2013-06-21 13:59:00,78.5,57.8,30.28,ESE,121,4.9,7.4,49,0.00,,,0.00,WUHU21623XXSP,2013-06-21 17:59:00,
2013-06-21 14:04:00,78.7,58.0,30.28,ESE,112,0.0,7.4,49,0.00,,,0.00,WUHU21623XXSP,2013-06-21 18:04:00,
2013-06-21 14:09:00,78.7,58.0,30.28,SSE,157,3.6,6.0,49,0.00,,,0.00,WUHU21623XXSP,2013-06-21 18:09:00,
2013-06-21 14:14:00,78.7,58.0,30.27,SSE,153,2.0,6.0,49,0.00,,,0.00,WUHU21623XXSP,2013-06-21 18:14:00,
2013-06-21 14:19:00,78.9,58.2,30.27,SSE,158,3.5,6.7,49,0.00,,,0.00,WUHU21623XXSP,2013-06-21 18:19:00,
2013-06-21 14:23:00,78.9,58.2,30.27,South,180,0.0,6.7,49,0.00,,,0.00,WUHU21623XXSP,2013-06-21 18:23:00,
2013-06-21 14:24:00,79.0,58.3,30.27,South,180,0.0,6.7,49,0.00,,,0.00,WUHU21623XXSP,2013-06-21 18:24:00,
2013-06-21 14:29:00,79.0,58.3,30.27,SSE,149,1.8,6.5,49,0.00,,,0.00,WUHU21623XXSP,2013-06-21 18:29:00,
2013-06-21 14:34:00,79.2,57.3,30.27,SSE,166,3.7,8.9,47,0.00,,,0.00,WUHU21623XXSP,2013-06-21 18:34:00,
2013-06-21 14:39:00,79.4,56.9,30.27,East,99,4.0,8.9,46,0.00,,,0.00,WUHU21623XXSP,2013-06-21 18:39:00,
2013-06-21 14:44:00,79.6,57.0,30.27,South,172,4.5,5.6,46,0.00,,,0.00,WUHU21623XXSP,2013-06-21 18:44:00,
2013-06-21 14:45:00,79.9,56.7,30.27,ENE,67,4.5,5.6,45,0.00,,,0.00,WUHU21623XXSP,2013-06-21 18:45:00,
2013-06-21 14:50:00,80.5,56.6,30.27,SSE,161,5.5,7.4,44,0.00,,,0.00,WUHU21623XXSP,2013-06-21 18:50:00,
2013-06-21 14:55:00,80.8,55.5,30.27,SSE,157,1.8,7.4,42,0.00,,,0.00,WUHU21623XXSP,2013-06-21 18:55:00,
2013-06-21 15:00:00,81.2,55.2,30.27,SSW,202,2.9,7.2,41,0.00,,,0.00,WUHU21623XXSP,2013-06-21 19:00:00,
2013-06-21 15:05:00,81.0,55.0,30.28,SSE,165,4.1,7.4,41,0.00,,,0.00,WUHU21623XXSP,2013-06-21 19:05:00,
2013-06-21 15:11:00,80.5,55.9,30.27,South,180,3.1,7.4,43,0.00,,,0.00,WUHU21623XXSP,2013-06-21 19:11:00,
2013-06-21 15:16:00,79.9,56.0,30.27,SE,132,5.4,7.4,44,0.00,,,0.00,WUHU21623XXSP,2013-06-21 19:16:00,
2013-06-21 15:20:00,79.6,55.8,30.27,ESE,112,5.6,6.5,44,0.00,,,0.00,WUHU21623XXSP,2013-06-21 19:20:00,
2013-06-21 15:25:00,79.0,55.9,30.27,SSE,157,4.1,6.5,45,0.00,,,0.00,WUHU21623XXSP,2013-06-21 19:25:00,
2013-06-21 15:30:00,78.5,56.0,30.26,ESE,102,2.5,7.4,46,0.00,,,0.00,WUHU21623XXSP,2013-06-21 19:30:00,
2013-06-21 15:35:00,78.3,56.5,30.26,East,81,2.3,9.2,47,0.00,,,0.00,WUHU21623XXSP,2013-06-21 19:35:00,
2013-06-21 15:40:00,78.1,56.9,30.26,SSE,166,1.5,9.2,48,0.00,,,0.00,WUHU21623XXSP,2013-06-21 19:40:00,
2013-06-21 15:42:00,77.8,56.6,30.26,ENE,67,3.4,8.1,48,0.00,,,0.00,WUHU21623XXSP,2013-06-21 19:42:00,
2013-06-21 15:43:00,78.0,57.4,30.26,ENE,72,2.2,8.1,49,0.00,,,0.00,WUHU21623XXSP,2013-06-21 19:43:00,
2013-06-21 15:48:00,77.8,57.2,30.26,South,180,4.7,7.8,49,0.00,,,0.00,WUHU21623XXSP,2013-06-21 19:48:00,
2013-06-21 15:53:00,77.4,57.4,30.26,South,180,3.5,7.8,50,0.00,,,0.00,WUHU21623XXSP,2013-06-21 19:53:00,
2013-06-21 15:58:00,77.2,57.8,30.26,ENE,67,7.6,7.8,51,0.00,,,0.00,WUHU21623XXSP,2013-06-21 19:58:00,
2013-06-21 16:03:00,77.2,57.8,30.26,ESE,112,0.0,8.9,51,0.00,,,0.00,WUHU21623XXSP,2013-06-21 20:03:00,
2013-06-21 16:04:00,77.2,58.3,30.26,ESE,119,2.0,8.9,52,0.00,,,0.00,WUHU21623XXSP,2013-06-21 20:04:00,
2013-06-21 16:08:00,77.2,58.3,30.26,SE,135,2.0,8.9,52,0.00,,,0.00,WUHU21623XXSP,2013-06-21 20:08:00,
2013-06-21 16:11:00,77.1,58.8,30.26,SE,128,4.3,4.7,53,0.00,,,0.00,WUHU21623XXSP,2013-06-21 20:11:00,
2013-06-21 16:13:00,76.9,58.6,30.26,South,188,6.2,8.5,53,0.00,,,0.00,WUHU21623XXSP,2013-06-21 20:13:00,
2013-06-21 16:18:00,77.1,58.8,30.26,East,99,2.8,8.5,53,0.00,,,0.00,WUHU21623XXSP,2013-06-21 20:18:00,
2013-06-21 16:23:00,77.2,59.4,30.26,SE,135,6.0,7.2,54,0.00,,,0.00,WUHU21623XXSP,2013-06-21 20:23:00,
2013-06-21 16:28:00,77.4,59.1,30.26,SSE,157,0.9,8.1,53,0.00,,,0.00,WUHU21623XXSP,2013-06-21 20:28:00,
2013-06-21 16:33:00,77.8,59.4,30.26,SSE,157,2.5,8.1,53,0.00,,,0.00,WUHU21623XXSP,2013-06-21 20:33:00,
2013-06-21 16:39:00,78.1,59.7,30.26,SE,146,1.8,6.0,53,0.00,,,0.00,WUHU21623XXSP,2013-06-21 20:39:00,
2013-06-21 16:44:00,79.0,60.0,30.26,SE,135,4.7,7.4,52,0.00,,,0.00,WUHU21623XXSP,2013-06-21 20:44:00,
2013-06-21 16:49:00,80.5,60.3,30.25,SE,135,0.0,7.4,50,0.00,,,0.00,WUHU21623XXSP,2013-06-21 20:49:00,
2013-06-21 16:54:00,82.6,61.0,30.25,South,179,3.1,6.5,48,0.00,,,0.00,WUHU21623XXSP,2013-06-21 20:54:00,
2013-06-21 16:59:00,83.9,61.6,30.25,SE,127,4.1,8.9,47,0.00,,,0.00,WUHU21623XXSP,2013-06-21 20:59:00,
2013-06-21 17:04:00,85.3,62.2,30.25,ESE,112,1.5,8.9,46,0.00,,,0.00,WUHU21623XXSP,2013-06-21 21:04:00,
2013-06-21 17:09:00,86.6,62.8,30.24,SE,128,4.0,8.9,45,0.00,,,0.00,WUHU21623XXSP,2013-06-21 21:09:00,
2013-06-21 17:14:00,87.7,63.1,30.24,SE,126,3.1,7.4,44,0.00,,,0.00,WUHU21623XXSP,2013-06-21 21:14:00,
2013-06-21 17:19:00,88.4,63.1,30.24,SSE,157,2.7,7.4,43,0.00,,,0.00,WUHU21623XXSP,2013-06-21 21:19:00,
2013-06-21 17:24:00,89.1,63.0,30.24,East,98,3.2,6.5,42,0.00,,,0.00,WUHU21623XXSP,2013-06-21 21:24:00,
2013-06-21 17:29:00,89.8,63.7,30.23,SSE,162,2.6,6.0,42,0.00,,,0.00,WUHU21623XXSP,2013-06-21 21:29:00,
2013-06-21 17:34:00,90.4,63.5,30.23,ESE,109,2.2,6.7,41,0.00,,,0.00,WUHU21623XXSP,2013-06-21 21:34:00,
2013-06-21 17:39:00,90.0,63.1,30.23,ENE,67,0.0,6.7,41,0.00,,,0.00,WUHU21623XXSP,2013-06-21 21:39:00,
2013-06-21 17:44:00,88.9,62.9,30.23,South,180,3.1,4.7,42,0.00,,,0.00,WUHU21623XXSP,2013-06-21 21:44:00,
2013-06-21 17:49:00,87.3,62.1,30.23,SSE,158,3.1,5.6,43,0.00,,,0.00,WUHU21623XXSP,2013-06-21 21:49:00,
2013-06-21 17:54:00,86.1,61.7,30.23,East,90,0.0,5.6,44,0.00,,,0.00,WUHU21623XXSP,2013-06-21 21:54:00,
2013-06-21 17:59:00,85.0,61.3,30.23,SE,135,3.6,4.7,45,0.00,,,0.00,WUHU21623XXSP,2013-06-21 21:59:00,
2013-06-21 18:04:00,84.1,61.1,30.23,SSE,155,3.2,5.4,46,0.00,,,0.00,WUHU21623XXSP,2013-06-21 22:04:00,
2013-06-21 18:09:00,83.2,60.3,30.24,SSE,157,0.0,5.4,46,0.00,,,0.00,WUHU21623XXSP,2013-06-21 22:09:00,
2013-06-21 18:14:00,82.3,60.1,30.24,SSE,157,0.0,3.1,47,0.00,,,0.00,WUHU21623XXSP,2013-06-21 22:14:00,
2013-06-21 18:19:00,81.6,60.1,30.24,SE,135,0.0,2.0,48,0.00,,,0.00,WUHU21623XXSP,2013-06-21 22:19:00,
2013-06-21 18:24:00,81.0,59.5,30.23,SE,135,0.0,2.0,48,0.00,,,0.00,WUHU21623XXSP,2013-06-21 22:24:00,
2013-06-21 18:29:00,80.5,59.7,30.23,SSE,157,0.0,0.0,49,0.00,,,0.00,WUHU21623XXSP,2013-06-21 22:29:00,
2013-06-21 18:34:00,79.9,59.7,30.23,SE,135,0.0,2.2,50,0.00,,,0.00,WUHU21623XXSP,2013-06-21 22:34:00,
2013-06-21 18:39:00,79.4,59.2,30.23,SSE,157,2.2,2.2,50,0.00,,,0.00,WUHU21623XXSP,2013-06-21 22:39:00,
2013-06-21 18:44:00,79.0,59.5,30.23,SSE,157,2.7,4.5,51,0.00,,,0.00,WUHU21623XXSP,2013-06-21 22:44:00,
2013-06-21 18:49:00,78.7,59.2,30.23,SSE,157,0.4,4.5,51,0.00,,,0.00,WUHU21623XXSP,2013-06-21 22:49:00,
2013-06-21 18:54:00,78.3,59.4,30.23,SSE,157,0.0,1.3,52,0.00,,,0.00,WUHU21623XXSP,2013-06-21 22:54:00,
2013-06-21 18:59:00,78.0,59.1,30.22,ENE,67,0.0,0.0,52,0.00,,,0.00,WUHU21623XXSP,2013-06-21 22:59:00,
2013-06-21 19:04:00,77.6,59.3,30.23,South,180,0.0,0.0,53,0.00,,,0.00,WUHU21623XXSP,2013-06-21 23:04:00,
2013-06-21 19:09:00,77.4,59.1,30.23,SSE,157,0.0,0.0,53,0.00,,,0.00,WUHU21623XXSP,2013-06-21 23:09:00,
2013-06-21 19:14:00,77.2,59.4,30.23,SSE,157,0.0,0.0,54,0.00,,,0.00,WUHU21623XXSP,2013-06-21 23:14:00,
2013-06-21 19:19:00,76.9,59.1,30.23,SSE,157,0.0,0.0,54,0.00,,,0.00,WUHU21623XXSP,2013-06-21 23:19:00,
2013-06-21 19:24:00,76.5,59.3,30.23,SSE,157,0.0,0.0,55,0.00,,,0.00,WUHU21623XXSP,2013-06-21 23:24:00,
2013-06-21 19:29:00,76.5,59.3,30.23,SSE,157,0.0,0.0,55,0.00,,,0.00,WUHU21623XXSP,2013-06-21 23:29:00,
2013-06-21 19:34:00,76.3,59.6,30.23,SE,135,0.0,0.0,56,0.00,,,0.00,WUHU21623XXSP,2013-06-21 23:34:00,
2013-06-21 19:39:00,76.0,59.3,30.23,SE,135,0.9,2.7,56,0.00,,,0.00,WUHU21623XXSP,2013-06-21 23:39:00,
2013-06-21 19:44:00,76.0,59.3,30.23,SE,135,0.0,2.7,56,0.00,,,0.00,WUHU21623XXSP,2013-06-21 23:44:00,
2013-06-21 19:49:00,75.6,59.5,30.22,SE,135,0.0,0.0,57,0.00,,,0.00,WUHU21623XXSP,2013-06-21 23:49:00,
2013-06-21 19:54:00,75.4,59.3,30.22,SE,135,0.0,0.0,57,0.00,,,0.00,WUHU21623XXSP,2013-06-21 23:54:00,
2013-06-21 19:59:00,75.3,59.7,30.22,SE,135,0.0,0.0,58,0.00,,,0.00,WUHU21623XXSP,2013-06-21 23:59:00,
2013-06-21 20:04:00,74.9,59.3,30.22,SE,135,0.0,0.0,58,0.00,,,0.00,WUHU21623XXSP,2013-06-22 00:04:00,
2013-06-21 20:09:00,74.7,59.6,30.22,SE,135,0.0,0.0,59,0.00,,,0.00,WUHU21623XXSP,2013-06-22 00:09:00,
2013-06-21 20:14:00,74.5,59.4,30.22,SE,135,0.0,0.0,59,0.00,,,0.00,WUHU21623XXSP,2013-06-22 00:14:00,
2013-06-21 20:19:00,74.2,59.1,30.22,SE,135,0.0,0.0,59,0.00,,,0.00,WUHU21623XXSP,2013-06-22 00:19:00,
2013-06-21 20:24:00,73.8,59.2,30.22,SE,135,0.0,0.0,60,0.00,,,0.00,WUHU21623XXSP,2013-06-22 00:24:00,
2013-06-21 20:29:00,73.6,59.5,30.23,SE,135,0.0,0.0,61,0.00,,,0.00,WUHU21623XXSP,2013-06-22 00:29:00,
2013-06-21 20:34:00,73.5,59.4,30.23,SE,135,0.0,0.0,61,0.00,,,0.00,WUHU21623XXSP,2013-06-22 00:34:00,
2013-06-21 20:39:00,73.3,59.7,30.23,SE,135,0.0,0.0,62,0.00,,,0.00,WUHU21623XXSP,2013-06-22 00:39:00,
2013-06-21 20:44:00,72.9,59.3,30.22,SE,135,0.0,0.0,62,0.00,,,0.00,WUHU21623XXSP,2013-06-22 00:44:00,
2013-06-21 20:49:00,72.7,59.6,30.22,SE,135,0.0,0.0,63,0.00,,,0.00,WUHU21623XXSP,2013-06-22 00:49:00,
2013-06-21 20:54:00,72.4,59.3,30.22,SE,135,0.0,0.0,63,0.00,,,0.00,WUHU21623XXSP,2013-06-22 00:54:00,
2013-06-21 20:59:00,72.2,59.5,30.22,SE,135,0.0,0.0,64,0.00,,,0.00,WUHU21623XXSP,2013-06-22 00:59:00,
2013-06-21 21:04:00,71.8,59.2,30.22,SE,135,0.0,0.0,64,0.00,,,0.00,WUHU21623XXSP,2013-06-22 01:04:00,
2013-06-21 21:09:00,71.8,59.2,30.22,SE,135,0.0,0.0,64,0.00,,,0.00,WUHU21623XXSP,2013-06-22 01:09:00,
2013-06-21 21:14:00,71.5,58.9,30.22,SE,135,0.0,0.0,64,0.00,,,0.00,WUHU21623XXSP,2013-06-22 01:14:00,
2013-06-21 21:19:00,71.3,59.1,30.22,SE,135,0.0,0.0,65,0.00,,,0.00,WUHU21623XXSP,2013-06-22 01:19:00,
2013-06-21 21:24:00,71.1,58.9,30.22,SE,135,0.0,0.0,65,0.00,,,0.00,WUHU21623XXSP,2013-06-22 01:24:00,
2013-06-21 21:29:00,70.9,59.2,30.22,SE,135,0.0,0.0,66,0.00,,,0.00,WUHU21623XXSP,2013-06-22 01:29:00,
2013-06-21 21:34:00,70.9,59.2,30.22,SE,135,0.0,0.0,66,0.00,,,0.00,WUHU21623XXSP,2013-06-22 01:34:00,
2013-06-21 21:39:00,70.6,59.3,30.23,South,180,0.0,0.0,67,0.00,,,0.00,WUHU21623XXSP,2013-06-22 01:39:00,
2013-06-21 21:44:00,70.4,59.1,30.23,South,180,0.0,0.0,67,0.00,,,0.00,WUHU21623XXSP,2013-06-22 01:44:00,
2013-06-21 21:49:00,70.2,58.9,30.23,South,180,0.0,0.0,67,0.00,,,0.00,WUHU21623XXSP,2013-06-22 01:49:00,
2013-06-21 21:54:00,70.2,59.3,30.23,South,180,0.0,0.0,68,0.00,,,0.00,WUHU21623XXSP,2013-06-22 01:54:00,
2013-06-21 21:59:00,70.0,59.1,30.23,South,180,0.0,0.0,68,0.00,,,0.00,WUHU21623XXSP,2013-06-22 01:59:00,
2013-06-21 22:04:00,69.9,59.0,30.23,South,180,0.0,0.0,68,0.00,,,0.00,WUHU21623XXSP,2013-06-22 02:04:00,
2013-06-21 22:09:00,69.7,58.9,30.23,South,180,0.0,0.0,68,0.00,,,0.00,WUHU21623XXSP,2013-06-22 02:09:00,
2013-06-21 22:14:00,69.7,59.3,30.23,South,180,0.0,0.0,69,0.00,,,0.00,WUHU21623XXSP,2013-06-22 02:14:00,
2013-06-21 22:19:00,69.3,58.9,30.23,South,180,0.0,0.0,69,0.00,,,0.00,WUHU21623XXSP,2013-06-22 02:19:00,
2013-06-21 22:24:00,69.3,58.9,30.23,South,180,0.0,0.0,69,0.00,,,0.00,WUHU21623XXSP,2013-06-22 02:24:00,
2013-06-21 22:29:00,69.1,59.1,30.23,South,180,0.0,0.0,70,0.00,,,0.00,WUHU21623XXSP,2013-06-22 02:29:00,
2013-06-21 22:34:00,69.1,59.1,30.23,South,180,0.0,0.0,70,0.00,,,0.00,WUHU21623XXSP,2013-06-22 02:34:00,
2013-06-21 22:39:00,69.1,59.1,30.23,South,180,0.0,0.0,70,0.00,,,0.00,WUHU21623XXSP,2013-06-22 02:39:00,
2013-06-21 22:44:00,68.8,59.2,30.23,South,180,0.0,0.0,71,0.00,,,0.00,WUHU21623XXSP,2013-06-22 02:44:00,
2013-06-21 22:49:00,68.8,59.2,30.23,South,180,0.0,0.0,71,0.00,,,0.00,WUHU21623XXSP,2013-06-22 02:49:00,
2013-06-21 22:54:00,68.8,59.6,30.23,SSW,202,0.0,0.0,72,0.00,,,0.00,WUHU21623XXSP,2013-06-22 02:54:00,
2013-06-21 22:59:00,68.8,59.6,30.23,SSW,202,0.0,0.0,72,0.00,,,0.00,WUHU21623XXSP,2013-06-22 02:59:00,
2013-06-21 23:04:00,68.6,59.4,30.23,SSW,202,0.0,0.0,72,0.00,,,0.00,WUHU21623XXSP,2013-06-22 03:04:00,
2013-06-21 23:09:00,68.6,59.4,30.23,SSW,202,0.0,0.0,72,0.00,,,0.00,WUHU21623XXSP,2013-06-22 03:09:00,
2013-06-21 23:14:00,68.6,59.4,30.23,SSW,202,0.0,0.0,72,0.00,,,0.00,WUHU21623XXSP,2013-06-22 03:14:00,
2013-06-21 23:19:00,68.6,59.4,30.24,SW,225,0.0,0.0,72,0.00,,,0.00,WUHU21623XXSP,2013-06-22 03:19:00,
2013-06-21 23:24:00,68.4,59.2,30.23,WSW,247,0.0,0.0,72,0.00,,,0.00,WUHU21623XXSP,2013-06-22 03:24:00,
2013-06-21 23:29:00,68.4,59.6,30.24,WSW,247,0.0,0.0,73,0.00,,,0.00,WUHU21623XXSP,2013-06-22 03:29:00,
2013-06-21 23:34:00,68.4,59.6,30.24,WSW,247,0.0,0.0,73,0.00,,,0.00,WUHU21623XXSP,2013-06-22 03:34:00,
2013-06-21 23:39:00,68.4,59.6,30.24,WSW,247,0.0,0.0,73,0.00,,,0.00,WUHU21623XXSP,2013-06-22 03:39:00,
2013-06-21 23:44:00,68.4,59.6,30.23,WSW,247,0.0,0.0,73,0.00,,,0.00,WUHU21623XXSP,2013-06-22 03:44:00,
2013-06-21 23:49:00,68.4,59.6,30.23,WSW,247,0.0,0.0,73,0.00,,,0.00,WUHU21623XXSP,2013-06-22 03:49:00,
2013-06-21 23:54:00,68.2,59.4,30.23,WSW,247,0.0,0.0,73,0.00,,,0.00,WUHU21623XXSP,2013-06-22 03:54:00,
2013-06-21 23:59:00,68.2,59.4,30.23,WSW,247,0.0,0.0,73,0.00,,,0.00,WUHU21623XXSP,2013-06-22 03:59:00,